Location: Mount Cross
(36.6390°N, 79.4878°W)
Time: 18:35:18
(UTC+00:00)

Courier 1B Rocket - Pass Details

Date: 23 March 2023
Orbit: 920 x 1202 km, 28.2° (Epoch: 05 June)

Event Time Altitude Azimuth Distance (km) Brightness Sun altitude
Rises 00:20:44 0° 207° (SSW) 3,833 8.3 -10.7°
Reaches altitude 10° 00:25:07 10° 183° (S) 2,813 7.3 -11.5°
Maximum altitude 00:28:17 14° 154° (SSE) 2,505 6.8 -12.2°
Enters shadow 00:30:43 11° 132° (SE) 2,638 6.8 -12.6°
Drops below altitude 10° 00:31:22 10° 126° (SE) 2,726 - -12.8°
Sets 00:35:28 0° 101° (ESE) 3,624 - -13.6°
